Location: Lake Arresoe
(56.0000°N, 12.5000°E)
Time: 17:23:13
(UTC+02:00)

CZ-3 Stage 3 - Pass Details

Date: 17 August 2020
Orbit: 426 x 34763 km, 31.1° (Epoch: 22 September)

Event Time Altitude Azimuth Distance (km) Brightness Sun altitude
Rises 00:14:59 0° 53° (NE) 37,671 11.4 -19.5°
Reaches altitude 10° 03:02:54 10° 62° (ENE) 38,025 11.9 -17.0°
Maximum altitude 03:44:52 11° 64° (ENE) 35,507 11.9 -13.9°
Drops below altitude 10° 04:20:10 10° 66° (ENE) 32,534 12.0 -10.6°
Sets 05:33:56 0° 66° (ENE) 23,613 13.4 -2.3°
